Location: Unspecified
(38.9820°N, 94.4650°W)
Time: 12:28:40
(UTC-05:00)

Okean 3 - Visible Passes

Search period start: 20 April 2014 00:00
Search period end: 30 April 2014 00:00
Orbit: 583 x 612 km, 82.5° (Epoch: 19 April)

Date Brightness Start Highest point End Pass type
(mag) Time Alt. Az. Time Alt. Az. Time Alt. Az.
20 Apr 3.9 22:06:52 29° SSW 22:08:52 61° W 22:13:05 10° N visible
21 Apr 5.1 20:39:54 10° SE 20:42:30 16° E 20:45:06 10° NE visible
21 Apr 4.9 22:16:14 14° SW 22:19:34 36° WNW 22:23:32 10° N visible
22 Apr 4.5 20:49:29 10° SE 20:53:00 25° E 20:56:30 10° NE visible
22 Apr 5.7 22:26:55 10° SW 22:30:20 23° WNW 22:33:45 10° NNW visible
23 Apr 3.9 20:59:32 10° SSE 21:03:32 41° E 21:07:32 10° NNE visible
23 Apr 6.4 22:38:44 10° WSW 22:41:09 15° WNW 22:43:33 10° NW visible
24 Apr 3.4 21:09:53 10° S 21:14:07 69° E 21:18:21 10° NNE visible
25 Apr 3.7 21:20:30 10° SSW 21:24:44 71° W 21:28:59 10° N visible
26 Apr 4.7 21:31:22 10° SSW 21:35:24 42° W 21:39:26 10° N visible
27 Apr 5.7 21:42:31 10° SW 21:46:07 26° WNW 21:49:42 10° NNW visible
28 Apr 6.4 21:54:06 10° WSW 21:56:52 17° WNW 21:59:38 10° NNW visible
29 Apr 6.9 22:06:51 10° W 22:07:40 11° WNW 22:08:30 10° WNW visible
